Погода в Бобруйске

Погода в Бобруйске : погода сейчас, прогноз погоды и архив. Всё, что Вы хотите узнать о погоде в Бобруйске!

Хотите узнать прогноз погоды в Бобруйске? Тогда Вам сюда: Погода в Бобруйске

Поиск расширенной информации на нашем сайте:

Другие новости

Новости СМИ2

Главная страница сайта

Новости сайта

03.07.2017

Напоминаем, что на нашем специализированном сайте Метеоцентр.Азия вы можете получить высокодетализированные автоматические прогнозы погоды по пунктам России, СНГ и мира в авиационном формате (включающие направление и скорость ветра, видимость, явления погоды, количество и форму облачности, нижнюю и верхнюю границу облачности).

Рекомендуем: для вашего бизнеса покупка офиса в бц Ринко Плаза Тимура Фрунзе ул., 24

Погода в Бобруйске - сегодня

Время (UTC), дата Ветер
(°,м/с) 
Видим.   Явления Облачность Т
(°С)
Тd
(°С)
f(%) Тe
(°С)
Pmin
(гПа)
dP
(гПа)
Po
(мм)
O2
(г/м3)
Тmin Tmax R s Состояние
почвы
00 19.09.17 240 (ЮЗ) 7-12{21}  10 км    9/9 1080 м 
[Sc]
+11 +7.1 77 +9  1011.4  2.7  744  287           
03 19.09.17 240 (ЮЗ) 5{13}  10 км    8/6 1000 м средняя 
[Sc|Ac trans]
+9.3 +7.1 86 +8  1013.4  1.9  746  289           
06 19.09.17 260 (З) 15000 м    5/5 300 м 
[Sc]
+10.5 +7.7 83 +9  1016  2.7  748  289  +9.1         
09 19.09.17 240 (ЮЗ) 20000 м    5/1 600 м верхняя 
[Cu hum|Ci fib]
+15.7 +8.4 62 +16  1017.3  1.5  749  284           
12 19.09.17 250 (З) 4{11}  20000 м    8/3 600 м верхняя 
[Cu hum|Ci sp]
+16.4 +8.4 59 +16  1017.7  0.5  749  283           
15 19.09.17 250 (З) 20000 м    8/3 600 м верхняя 
[Cu hum|Ci fib]
+16.1 +7.6 57 +17  1018.1  0.4  750  284           
18 19.09.17 тихо ()   10 км    8/0 средняя 
[Ac trans]
+10.4 +9.3 93 +11  1019.3  0.8  750  290    +18.2       
21 19.09.17 тихо ()   8000 м  дымка  ясно 
+8.3 +7.7 96 +8  1020.1  0.7  751  292           
00 20.09.17 060 (СВ) 8000 м  дымка  ясно 
+6.4 +6 97 +7  1020  -0.3  751  295           
03 20.09.17 030 (СВ) 10 км    9/0 средняя 
[Ac und]
+10 +8.4 90 +11  1019.6  -0.1  751  290           
06 20.09.17 080 (В) 10 км  в посл. час ливневой дождь  9/4 300 м кучево-дожд., средняя 
[Cb calv|Ac und]
+10.1 +9.2 94 +10  1019.9  0.2  751  290  +5.9       
09 20.09.17 050 (СВ) 10 км    9/9 1500 м 
[Sc]
+11.6 +10.3 92 +14  1019.8  751  288           
12 20.09.17 080 (В) 17000 м    9/9 1050 м 
[Sc]
+15.3 +9.9 70 +16  1018.6  -0.8  750  284           
15 20.09.17 090 (В) 20000 м    6/0 средняя, верхняя 
[Ac trans|Ci fib]
+15.5 +9.4 67 +15  1017.5  -1.2  749  284           
18 20.09.17 080 (В) 10 км    8/0 средняя 
[Ac trans]
+12.7 +9.7 82 +14  1018.4  0.7  750  287    +16.4       
21 20.09.17 070 (В) 10 км    9/0 средняя 
[Ac und]
+11.8 +8.6 81 +12  1017.6  -0.9  749  288           
00 21.09.17 060 (СВ) 10 км  {ливн. осадки}  9/5 300 м кучево-дожд., средняя 
[Cb calv|Ac und]
+10.7 +9.8 94 +11  1016.8  -0.8  748  288      0.6     
03 21.09.17 060 (СВ) 10 км    9/0 средняя, верхняя 
[Ac trans|Ci fib]
+10.9 +9.7 92 +11  1015.2  -1.5  747  288      0.7     
06 21.09.17 080 (В) 10 км  в посл. час ливневой дождь  9/8 270 м кучево-дожд., средняя 
[Cb calv|Ac und]
+11.1 +10.2 94 +12  1014.9  -0.3  747  287  +10.6       
09 21.09.17 100 (В) 6-11{11}  12000 м    9/3 600 м средняя 
[Cu hum|Ac trans]
+15.3 +11.3 77 +18  1013.6  -1  746  283           
12 21.09.17 090 (В) 5{13}  20000 м    4/0 средняя, верхняя 
[Ac trans|Ci fib]
+18.6 +12.4 67 +24  1012.2  -1.2  745  279           
15 21.09.17 060 (СВ) 2{11}  20000 м    8/0 средняя 
[Ac trans]
+18.2 +13.1 72 +25  1011.8  -0.4  745  279           
18 21.09.17 070 (В) 10 км    8/8 630 м 
[Sc]
+16.3 +13.2 82 +23  1012.6  0.7  746  281    +19.1       
21 21.09.17 100 (В) 10 км    9/0 средняя 
[Ac und]
+18.7 +12.2 66 +23  1012.9  0.4  746  279           
00 22.09.17 080 (В) 3{11}  10 км  {ливн. осадки}  3/3 300 м кучево-дожд. 
[Cb calv]
+17.1 +11.6 70 +21  1014.5  1.5  747  281      0.1     
Время (UTC), дата Ветер
(°,м/с) 
Видим.   Явления Облачность Т
(°С)
Тd
(°С)
f(%) Тe
(°С)
Pmin
(гПа)
dP
(гПа)
Po
(мм)
O2
(г/м3)
Тmin Tmax R s Состояние
почвы

Для получения пояснительной информации подведите курсор к названию столбца.

ПОГОДА в Бобруйске - архив

Всё, что Вы хотите узнать о погоде в Бобруйске - удобно и подробно!

Выберите нужную дату (начиная с 1 января 2015* года) и нажмите кнопку "Найти".
Будут отображены архивные сводки погоды по пункту Бобруйск, начиная с указанной даты.


Отображать данные в формате CSV (для использования в таблицах Excel)


Внимание! Наш архив погоды предназначен исключительно для личного некоммерческого использования в познавательных целях. Если Вам необходимы официальные справки о состоянии погоды (для производственных, юридических, коммерческих и т.п. целей), обращайтесь в органы Росгидромета.

*Примечание: данная дата относится к архиву по метеостанциям СССР (Россия, СНГ, Балтия).
Архив по метеостанциям Зарубежной Европы и Азии (кроме Китая) хранится 10 дней, по другим регионам земного шара (Китай, Африка, Америка, Австралия, Океания) - 1 день.

Бобруйск - район местоположения метеостанции


Название, широта, долгота, высота метеостанции:
Бобруйск 53.2°ш. 29.2°д. 156 м над ур. моря [Беларусь]

Дополнительная информация

В oтличие oт бoльшинства пoгoдных сайтoв мы публикуем пoдрoбную метеoинфoрмацию в детальнoм прoфессиoнальнoм фoрмате.

Характеристики температуры и влажнoсти вoздуха измеряются на высoте 2 м в тени вдали oт зданий и деревьев.
Скoрoсть ветра измеряется на высoте 10 м (на урoвне рoста челoвека скoрoсть ветра ниже в 1.5-2 раза). Если метеoстанция нахoдится в гoрoде или в лесу, тo скoрoсть ветра занижена на 2-4 м/с пo сравнению с oткрытым местoм. Скoрoсть ветра над акватoриями крупных рек и oзёр, а также на вершинах хoлмoв на 2-5 м/с выше, чем в oбычных услoвиях.
Атмoсфернoе давление в разных тoчках местнoсти мoжет значительнo oтличаться oт давления на метеoстанции, в зависимoсти oт услoвий рельефа (при пoдъёме на 10 м давление пoнижается примернo на 1 мм рт.ст.).